Location: Detroit
(42.3310°N, 83.0460°W)
Time: 10:39:02
(UTC-05:00)

Tiros 1 despin weight - Pass Details

Date: 04 December 2023
Orbit: 581 x 624 km, 48.2° (Epoch: 01 March)

Event Time Altitude Azimuth Distance (km) Brightness Sun altitude
Rises 18:40:41 0° 233° (SW) 2,799 ? -18.0°
Reaches altitude 10° 18:42:58 10° 231° (SW) 1,897 ? -18.5°
Maximum altitude 18:47:17 68° 149° (SSE) 628 ? -19.2°
Enters shadow 18:48:18 48° 87° (E) 759 ? -19.4°
